Regional Weather Roundup
Issued by NWS

Home | Current Version | Previous Version | Graphics & Text | Print | Product List | Glossary On
Versions: 1 2 3 4 5 6 7 8 9 10 11 12 13 14 15 16 17 18 19 20 21 22 23 24 25 26 27 28 29 30 31 32 33 34 35 36 37 38 39 40 41 42 43 44 45 46 47 48 49
000
ASUS45 KBOU 310507
RWRCO

WEATHER ROUNDUP FOR COLORADO
NATIONAL WEATHER SERVICE DENVER/BOULDER CO
1100 PM MDT SUN AUG 30 2015

NOTE: "FAIR" INDICATES FEW OR NO CLOUDS BELOW 12000 FEET WITH NO
SIGNIFICANT WEATHER AND/OR OBSTRUCTIONS TO VISIBILITY.

COZ001>005-013-030-031-310600-
...NORTHWEST COLORADO...

CITY           SKY/WX    TMP DP  RH WIND       PRES   REMARKS
CRAIG          CLOUDY    62  50  64 S28G35    30.15F
HAYDEN         NOT AVBL
MEEKER         RAIN      57  53  86 SE13G29   30.23R
MOUNT WERNER   NOT AVBL
STEAMBOAT SPGS CLOUDY    56  53  88 CALM      30.25R
WALDEN         CLOUDY    54  45  71 E5        30.28F
$$

COZ006>008-011-310600-
...WEST CENTRAL VALLEYS...

CITY           SKY/WX    TMP DP  RH WIND       PRES   REMARKS
GRAND JUNCTION LGT RAIN  62  61  96 W10       30.16R
MONTROSE       CLOUDY    63  58  83 SE7       30.20F
EAGLE          CLOUDY    66  52  59 SW22G28   30.26R
RIFLE          RAIN      61  57  87 CALM      30.25R FOG
DELTA          RAIN      71  55  57 NE10      30.16S
NUCLA          CLOUDY    68  50  52 E5        30.20F
$$

COZ017>023-064>068-310600-
...SOUTHWEST COLORADO...

CITY           SKY/WX    TMP DP  RH WIND       PRES   REMARKS
DURANGO        CLOUDY    67  46  47 W8        30.22F
CORTEZ         CLEAR     64  53  67 W3        30.17F
PAGOSA SPRINGS CLOUDY    63  44  50 CALM      30.29R
TELLURIDE      CLOUDY    59  46  63 CALM      30.42S
WOLF CREEK PAS PTCLDY    46  41  81 SW18      30.61S
$$

COZ009-010-012-014-032>034-037-058>063-310600-
...CENTRAL COLORADO...

CITY           SKY/WX    TMP DP  RH WIND       PRES   REMARKS
ASPEN          CLOUDY    61  47  59 N12G22    30.34R
BUENA VISTA    MOCLDY    64  39  39 NW7       30.25S
COPPER MTN     CLOUDY    54  34  47 W8        30.57F
BERTHOUD PASS  CLOUDY    41  30  65 N7G18     30.62F
COTTONWOOD PAS NOT AVBL
GUNNISON       CLOUDY    63  48  59 NW5       30.31F
KREMMLING      CLOUDY    63  43  48 W6        30.26S
LEADVILLE      MOCLDY    51  36  56 NE6       30.40F
MONARCH PASS   PTCLDY    45  37  76 W28       30.68F
SALIDA         MOCLDY    69  39  33 SW16G25   30.30R
SUNLIGHT       LGT RAIN  46  46 100 SW3       30.54R VSB 3/4
WILKERSON PASS MOCLDY    54  32  43 W7        30.53S
$$

COZ069>075-310600-
...SAN LUIS VALLEY/SANGRE DE CRISTO MOUNTAINS...

CITY           SKY/WX    TMP DP  RH WIND       PRES   REMARKS
ALAMOSA        PTCLDY    58  44  60 S5        30.23R
LA VETA PASS   CLEAR     57  34  41 MISG      30.42S
SAGUACHE       NOT AVBL
$$

COZ035-036-038>040-310600-
...NORTHERN COLORADO FRONT RANGE...

CITY           SKY/WX    TMP DP  RH WIND       PRES   REMARKS
DENVER INTL AP MOCLDY    78  41  26 SW9       30.01R
DMNS CITY PARK   N/A     75  43  31 S6        30.00R
AURORA         MOCLDY    75  42  30 SW8       30.04R
FRONT RANGE AP NOT AVBL
ERIE MUNI ARPT MOCLDY    78  39  24 W3        29.99R
BOULDER MUN AP MOCLDY    79  43  27 CALM      30.00R
CENTENNIAL     MOCLDY    75  43  31 SW9       30.04R
BROOMFIELD     NOT AVBL
FORT COLLINS   CLOUDY    75  46  35 NE9       29.99F
LONGMONT       CLOUDY    78  43  28 NE9       30.00R
$$

COZ041-046-047-076>085-087-088-310600-
...PIKES PEAK/PALMER DIVIDE AND SOUTHERN FOOTHILLS...

CITY           SKY/WX    TMP DP  RH WIND       PRES   REMARKS
COLO. SPRINGS  PTCLDY    72  46  39 S3        30.10F
A. F. ACADEMY  PTCLDY    65  43  46 CALM      30.12F
ELLICOTT       NOT AVBL
FALCON         PTCLDY    66  46  49 MISG      30.16S
FORT CARSON    PTCLDY    70  46  40 NE3       30.05F
LIMON          CLEAR     64  48  56 SE8       30.05S
MONUMENT HILL  CLEAR     64  45  48 S10       30.16S
TRINIDAD       CLEAR     77  51  40 S22G28    30.06S
$$

COZ042>045-048>051-090-091-310600-
...NORTHEAST COLORADO...

CITY           SKY/WX    TMP DP  RH WIND       PRES   REMARKS
GREELEY ARPT   MOCLDY    75  46  35 N13       29.97R
AKRON          CLEAR     73  48  41 S17       29.97F
BURLINGTON     CLEAR     66  44  45 S13       30.01S
WRAY           CLEAR     75  39  27 S17G26    29.94S
STERLING       CLEAR     77  50  38 S12G18    29.91S
HOLYOKE        CLEAR     73  43  33 S12       29.94R
FORT MORGAN    CLEAR     71  48  43 SE8       29.96R
$$

COZ086-089-092>099-310600-
...SOUTHEAST COLORADO...

CITY           SKY/WX    TMP DP  RH WIND       PRES   REMARKS
PUEBLO         PTCLDY    76  47  35 E5        29.95S
LA JUNTA       CLEAR     81  51  35 S12       29.94F
LAMAR          CLEAR     74  49  41 SE12      29.93S HAZE
SPRINGFIELD    NOT AVBL
$$



USA.gov is the U.S. government's official web portal to all federal, state and local government web resources and services.